Location: Unspecified
(0.0000°N, 0.0000°E)
Time: 22:47:40
(UTC+00:00)

A-11 Canister half - Pass Details

Date: 08 October 2020
Orbit: 1515 x 1685 km, 47.2° (Epoch: 30 October)

Event Time Altitude Azimuth Distance (km) Brightness Sun altitude
Rises 21:46:37 0° 212° (SSW) 4,937 12.0 -59.2°
Reaches altitude 10° 21:49:52 10° 208° (SSW) 3,948 11.3 -60.0°
Enters shadow 21:50:10 11° 208° (SSW) 3,861 11.2 -60.1°
